Simultaneous Nadir Overpasses (SNOs) Predictions

Prediction of SNOs between AQUA and GOES-15 Satellite Orbit:

Table of predicted SNOs for the next 14.0 days since TLE Epoch: 9/6/2012
Index Date Time (AQUA) AQUA Lat,Lon GOES-15 Lat,Lon Distance(km) Time Diff (sec)
1 09/06/2012 22:46:52 -1.03,-137.76 -0.37,-134.72 345.64 80
2 09/08/2012 22:34:39 -0.34,-134.80 -0.37,-134.80 2.82 80
3 09/10/2012 22:22:24 0.26,-131.83 -0.36,-134.87 345.54 80
4 09/11/2012 10:43:39 0.81,-136.99 0.35,-134.93 235.09 80
5 09/13/2012 10:31:24 0.17,-134.02 0.34,-135.00 110.00 80
6 09/13/2012 22:52:48 -1.22,-139.22 -0.33,-134.97 482.74 80
7 09/15/2012 10:19:09 -0.51,-131.06 0.34,-135.06 454.79 80
8 09/15/2012 22:40:32 -0.59,-136.25 -0.33,-135.04 137.86 80
9 09/17/2012 22:28:16 0.07,-133.28 -0.33,-135.09 206.54 80
10 09/18/2012 10:49:30 1.04,-138.43 0.31,-135.14 373.83 80
11 09/20/2012 10:37:13 0.39,-135.45 0.31,-135.19 30.46 80




NCC Satellite Simultaneous Nadir Overpasses (SNOs) Prediction Service
